User: anonymous   Login
Location: Beaurevoir
(49.9971°N, 3.3085°E)
Time: 19:32:17
(UTC+00:00)
Language:

Cosmos 1953 - Orbit

View from above orbital plane
View from above orbital plane
View from above satellite
View from above satellite

Ground track
Ground track

The orbit data is extracted from the following two-line orbital elements,

1 19210U 88050A   24201.93652735  .00009996  00000-0  52256-3 0  9999
2 19210  82.5131  34.1922 0015509  60.2185 300.0587 15.15646156946820
Epoch (UTC): 19 July 2024 22:28:35
Eccentricity: 0.0015509
inclination: 82.5131°
perigee height: 508 km
apogee height: 530 km
right ascension of ascending node: 34.1922°
argument of perigee: 60.2185°
revolutions per day: 15.15646156
mean anomaly at epoch: 300.0587°
orbit number at epoch: 94682

The dashed part of the orbit path shows where the satellite is in the earth's shadow,  

DLR